This demonstration page uses our WeatherBlox Daily Observations layout. Learn more.

Left ArrowRight Arrow

40.92945, -100.16068

Hourly Observations for June 28, 2020

Temp ( °F °C ) Dew Point ( °F °C ) Humidity (%) Winds ( mph kmh ) Pressure ( in mb ) Visibility ( mi km ) Precip ( " mm )
12:15 am 00:15 Clear 75 23.7 67 19.2 76 76 SE 15 24 29.54 1000 10 16.0934 0 0
12:35 am 00:35 Clear with Nearby Thunderstorms 74 23.5 67 19.5 78 78 ESE 12 19 29.52 1000 10 16.0934 0 0
12:55 am 00:55 Partly Cloudy with Nearby Thunderstorms 75 23.9 67 19.3 76 76 SSE 18 30 29.55 1001 10 16.0934 0 0
1:15 am 01:15 Partly Cloudy with Nearby Thunderstorms 71 21.6 64 17.7 79 79 SSE 12 19 29.54 1000 10 16.0934 0 0
1:35 am 01:35 Clear 69 20.6 63 17 80 80 S 9 15 29.54 1000 10 16.0934 0 0
1:55 am 01:55 Clear 69 20.3 62 16.9 81 81 E 5 7 29.53 1000 10 16.0934 0 0
2:15 am 02:15 Partly Cloudy 69 20.7 62 16.7 78 78 SSE 10 17 29.51 999 10 16.0934 0 0
2:35 am 02:35 Mostly Cloudy with Light Thunderstorms 69 20.6 61 16.3 76 76 WNW 5 7 29.5 999 10 16.0934 0 0
2:55 am 02:55 Mostly Cloudy with Light Rain 68 20 61 16 78 78 SSW 6 9 29.48 998 10 16.0934 0.15 3.81
3:15 am 03:15 Clear 68 19.8 60 15.8 78 78 SSE 13 20 29.48 998 10 16.0934 0 0
3:35 am 03:35 Clear 70 21.3 60 15.4 69 69 N 12 19 29.51 999 10 16.0934 0 0
3:55 am 03:55 Clear 69 20.5 61 16.1 76 76 ESE 6 9 29.52 1000 10 16.0934 0 0
4:15 am 04:15 Clear 69 20.6 61 15.9 75 75 E 13 20 29.57 1001 10 16.0934 0 0
4:35 am 04:35 Clear 69 20.5 61 16.2 76 76 E 10 17 29.55 1001 10 16.0934 0 0
4:55 am 04:55 Clear 68 19.9 61 16.1 79 79 ESE 9 15 29.55 1001 10 16.0934 0 0
5:15 am 05:15 Clear 66 19 62 16.4 85 85 E 8 13 29.55 1001 10 16.0934 0 0
5:35 am 05:35 Clear 67 19.3 59 14.9 76 76 E 7 11 29.54 1000 10 16.0934 0 0
5:55 am 05:55 Clear 66 18.7 59 15 79 79 E 6 9 29.54 1000 10 16.0934 0 0
6:15 am 06:15 Sunny 65 18.6 60 15.6 83 83 E 9 15 29.55 1001 10 16.0934 0 0
6:35 am 06:35 Sunny 65 18.1 61 16 88 88 E 7 11 29.57 1001 10 16.0934 0 0
6:55 am 06:55 Sunny 65 18.1 61 16.3 89 89 SE 6 9 29.59 1002 10 16.0934 0 0
7:15 am 07:15 Sunny 65 18.4 62 16.5 89 89 ESE 9 15 29.59 1002 10 16.0934 0 0
7:35 am 07:35 Sunny 66 18.8 62 16.7 88 88 ESE 6 9 29.57 1001 10 16.0934 0 0
7:55 am 07:55 Sunny 68 19.9 62 16.8 82 82 SE 8 13 29.57 1001 10 16.0934 0 0
8:15 am 08:15 Sunny 70 21 63 17 78 78 SSE 9 15 29.56 1001 10 16.0934 0 0
8:35 am 08:35 Sunny 72 22.4 62 16.9 71 71 SSE 10 17 29.55 1001 10 16.0934 0 0
8:55 am 08:55 Sunny 74 23.4 63 17.3 69 69 SSE 14 22 29.54 1000 10 16.0934 0 0
9:15 am 09:15 Sunny 74 23.6 64 17.5 69 69 SSE 13 20 29.52 1000 10 16.0934 0 0
9:35 am 09:35 Sunny 74 23.4 64 17.8 71 71 SSE 12 19 29.52 1000 10 16.0934 0 0
9:55 am 09:55 Sunny 75 23.8 65 18.1 71 71 S 10 17 29.52 1000 10 16.0934 0 0
10:15 am 10:15 Sunny 76 24.6 65 18.5 69 69 S 10 17 29.5 999 10 16.0934 0 0
10:35 am 10:35 Sunny 78 25.6 65 18.5 65 65 S 10 17 29.49 999 10 16.0934 0 0
10:55 am 10:55 Sunny 79 25.9 64 18 62 62 S 7 11 29.48 998 10 16.0934 0 0
11:15 am 11:15 Sunny 83 28.2 65 18.4 55 55 SSE 13 20 29.46 997 10 16.0934 0 0
11:35 am 11:35 Sunny 81 27.1 65 18.2 58 58 S 9 15 29.46 998 10 16.0934 0 0
11:55 am 11:55 Sunny 85 29.4 65 18.5 52 52 S 12 19 29.44 997 10 16.0934 0 0
12:15 pm 12:15 Sunny 86 30 64 18 49 49 S 10 17 29.44 997 10 16.0934 0 0
12:35 pm 12:35 Sunny 87 30.7 66 18.8 49 49 S 9 15 29.43 996 10 16.0934 0 0
12:55 pm 12:55 Sunny 87 30.8 66 19 49 49 S 8 13 29.43 996 10 16.0934 0 0
1:15 pm 13:15 Sunny 89 31.5 67 19.2 48 48 S 8 13 29.41 996 10 16.0934 0 0
1:35 pm 13:35 Sunny 89 31.9 66 19.1 47 47 S 6 9 29.41 996 10 16.0934 0 0
1:55 pm 13:55 Sunny 90 32 67 19.7 48 48 SE 9 15 29.4 995 10 16.0934 0 0
2:15 pm 14:15 Sunny 90 32.2 68 20.2 49 49 SSE 13 20 29.39 995 10 16.0934 0 0
2:35 pm 14:35 Sunny 90 32.1 69 20.6 51 51 S 9 15 29.4 995 7 11.26538 0 0
2:55 pm 14:55 Partly Cloudy 91 32.5 69 20.8 50 50 SE 7 11 29.39 995 10 16.0934 0 0
3:15 pm 15:15 Partly Cloudy 90 32 70 21.2 53 53 ESE 12 19 29.39 995 7 11.26538 0 0
3:35 pm 15:35 Partly Cloudy 90 32.3 70 20.9 51 51 SSE 14 22 29.38 995 7 11.26538 0 0
3:55 pm 15:55 Mostly Cloudy 91 32.9 69 20.6 48 48 SE 13 20 29.39 995 7 11.26538 0 0
4:15 pm 16:15 Partly Cloudy 91 32.8 69 20.5 48 48 SSE 13 20 29.38 995 7 11.26538 0 0
4:35 pm 16:35 Sunny 91 33 68 19.8 46 46 SSE 13 20 29.38 995 7 11.26538 0 0
4:55 pm 16:55 Sunny 92 33.1 67 19.5 45 45 SSE 14 22 29.38 995 7 11.26538 0 0
5:15 pm 17:15 Sunny 91 33 67 19.2 44 44 SSE 13 20 29.38 995 10 16.0934 0 0
5:35 pm 17:35 Sunny 92 33.2 65 18.1 41 41 SSE 14 22 29.38 995 10 16.0934 0 0
5:55 pm 17:55 Sunny 91 32.9 64 18 41 41 SSE 12 19 29.37 995 10 16.0934 0 0
6:15 pm 18:15 Sunny 91 33 66 18.9 43 43 SSE 12 19 29.37 995 7 11.26538 0 0
6:35 pm 18:35 Sunny 91 32.7 67 19.2 45 45 SSE 15 24 29.36 994 10 16.0934 0 0
6:55 pm 18:55 Sunny 91 33 67 19.6 45 45 SSE 9 15 29.36 994 10 16.0934 0 0
7:15 pm 19:15 Sunny 91 32.5 67 19.7 47 47 SE 14 22 29.36 994 7 11.26538 0 0
7:35 pm 19:35 Sunny 90 32 68 20 49 49 SE 12 19 29.37 994 7 11.26538 0 0
7:55 pm 19:55 Sunny 89 31.4 69 20.7 53 53 SE 12 19 29.37 995 7 11.26538 0 0
8:15 pm 20:15 Sunny 86 30 69 20.7 57 57 ESE 10 17 29.38 995 7 11.26538 0 0
8:35 pm 20:35 Sunny 85 29.3 69 20.8 60 60 ESE 7 11 29.39 995 7 11.26538 0 0
8:55 pm 20:55 Sunny 83 28.2 70 21 65 65 ESE 8 13 29.4 995 7 11.26538 0 0
9:15 pm 21:15 Clear 82 27.7 70 21 67 67 ESE 7 11 29.41 996 7 11.26538 0 0
9:35 pm 21:35 Clear 82 27.6 69 20.8 67 67 SE 9 15 29.41 996 10 16.0934 0 0
9:55 pm 21:55 Clear 81 27 69 20.7 68 68 SE 10 17 29.42 996 10 16.0934 0 0
10:15 pm 22:15 Clear 79 26 69 20.7 73 73 SE 8 13 29.43 997 10 16.0934 0 0
10:35 pm 22:35 Clear 78 25.8 69 20.6 73 73 SE 7 11 29.44 997 10 16.0934 0 0
10:55 pm 22:55 Clear 78 25.5 69 20.6 74 74 SE 7 11 29.45 997 7 11.26538 0 0
11:15 pm 23:15 Clear 77 25.1 69 20.5 76 76 SSE 8 13 29.46 998 10 16.0934 0 0
11:35 pm 23:35 Clear 76 24.6 69 20.5 78 78 SSE 8 13 29.46 998 7 11.26538 0 0
11:55 pm 23:55 Clear 77 25.1 69 20.3 75 75 SSE 8 13 29.46 998 10 16.0934 0 0

Powered by AerisWeather